Year,Month,Day,Hour,Minute,Value (Times are PST for temperature in C)
2013,04,23,00,00,7.20
2013,04,23,00,01,7.10
2013,04,23,00,02,7.10
2013,04,23,00,03,7.20
2013,04,23,00,04,7.10
2013,04,23,00,05,7.10
2013,04,23,00,06,7.10
2013,04,23,00,07,7.00
2013,04,23,00,08,7.00
2013,04,23,00,09,7.00
2013,04,23,00,10,7.00
2013,04,23,00,11,6.90
2013,04,23,00,12,6.90
2013,04,23,00,13,6.80
2013,04,23,00,14,6.80
2013,04,23,00,15,6.80
2013,04,23,00,16,6.80
2013,04,23,00,17,6.70
2013,04,23,00,18,6.60
2013,04,23,00,19,6.60
2013,04,23,00,20,6.60
2013,04,23,00,21,6.60
2013,04,23,00,22,6.40
2013,04,23,00,23,6.40
2013,04,23,00,24,6.40
2013,04,23,00,25,6.40
2013,04,23,00,26,6.40
2013,04,23,00,27,6.30
2013,04,23,00,28,6.30
2013,04,23,00,29,6.30
2013,04,23,00,30,6.30
2013,04,23,00,31,6.30
2013,04,23,00,32,6.30
2013,04,23,00,33,6.30
2013,04,23,00,34,6.20
2013,04,23,00,35,6.20
2013,04,23,00,36,6.20
2013,04,23,00,37,6.10
2013,04,23,00,38,6.10
2013,04,23,00,39,6.00
2013,04,23,00,40,6.00
2013,04,23,00,41,6.00
2013,04,23,00,42,5.90
2013,04,23,00,43,5.90
2013,04,23,00,44,5.90
2013,04,23,00,45,5.80
2013,04,23,00,46,5.80
2013,04,23,00,47,5.70
2013,04,23,00,48,5.70
2013,04,23,00,49,5.70
2013,04,23,00,50,5.70
2013,04,23,00,51,5.70
2013,04,23,00,52,5.70
2013,04,23,00,53,5.60
2013,04,23,00,54,5.60
2013,04,23,00,55,5.60
2013,04,23,00,56,5.50
2013,04,23,00,57,5.50
2013,04,23,00,58,5.50
2013,04,23,00,59,5.40
2013,04,23,01,00,5.40
2013,04,23,01,01,5.40
2013,04,23,01,02,5.30
2013,04,23,01,03,5.30
2013,04,23,01,04,5.30
2013,04,23,01,05,5.30
2013,04,23,01,06,5.30
2013,04,23,01,07,5.30
2013,04,23,01,08,5.20
2013,04,23,01,09,5.20
2013,04,23,01,10,5.10
2013,04,23,01,11,5.10
2013,04,23,01,12,5.10
2013,04,23,01,13,5.10
2013,04,23,01,14,5.10
2013,04,23,01,15,5.10
2013,04,23,01,16,5.10
2013,04,23,01,17,5.10
2013,04,23,01,18,5.10
2013,04,23,01,19,5.10
2013,04,23,01,20,5.10
2013,04,23,01,21,5.10
2013,04,23,01,22,4.90
2013,04,23,01,23,4.90
2013,04,23,01,24,4.90
2013,04,23,01,25,4.90
2013,04,23,01,26,4.90
2013,04,23,01,27,4.80
2013,04,23,01,28,4.80
2013,04,23,01,29,4.80
2013,04,23,01,30,4.70
2013,04,23,01,31,4.70
2013,04,23,01,32,4.70
2013,04,23,01,33,4.60
2013,04,23,01,34,4.60
2013,04,23,01,35,4.60
2013,04,23,01,36,4.60
2013,04,23,01,37,4.60
2013,04,23,01,38,4.60
2013,04,23,01,39,4.60
2013,04,23,01,40,4.60
2013,04,23,01,41,4.60
2013,04,23,01,42,4.60
2013,04,23,01,43,4.50
2013,04,23,01,44,4.50
2013,04,23,01,45,4.50
2013,04,23,01,46,4.50
2013,04,23,01,47,4.50
2013,04,23,01,48,4.50
2013,04,23,01,49,4.50
2013,04,23,01,50,4.50
2013,04,23,01,51,4.50
2013,04,23,01,52,4.50
2013,04,23,01,53,4.50
2013,04,23,01,54,4.40
2013,04,23,01,55,4.40
2013,04,23,01,56,4.30
2013,04,23,01,57,4.30
2013,04,23,01,58,4.30
2013,04,23,01,59,4.30
2013,04,23,02,00,4.30
2013,04,23,02,01,4.30
2013,04,23,02,02,4.30
2013,04,23,02,03,4.30
2013,04,23,02,04,4.30
2013,04,23,02,05,4.30
2013,04,23,02,06,4.20
2013,04,23,02,07,4.20
2013,04,23,02,08,4.20
2013,04,23,02,09,4.20
2013,04,23,02,10,4.20
2013,04,23,02,11,4.20
2013,04,23,02,12,4.20
2013,04,23,02,13,4.20
2013,04,23,02,14,4.20
2013,04,23,02,15,4.10
2013,04,23,02,16,4.10
2013,04,23,02,17,4.10
2013,04,23,02,18,4.10
2013,04,23,02,19,4.10
2013,04,23,02,20,4.00
2013,04,23,02,21,4.00
2013,04,23,02,22,4.00
2013,04,23,02,23,4.00
2013,04,23,02,24,4.00
2013,04,23,02,25,4.00
2013,04,23,02,26,4.00
2013,04,23,02,27,4.00
2013,04,23,02,28,4.00
2013,04,23,02,29,4.00
2013,04,23,02,30,4.00
2013,04,23,02,31,4.00
2013,04,23,02,32,4.00
2013,04,23,02,33,3.90
2013,04,23,02,34,3.90
2013,04,23,02,35,3.90
2013,04,23,02,36,3.90
2013,04,23,02,37,3.80
2013,04,23,02,38,3.80
2013,04,23,02,39,3.80
2013,04,23,02,40,3.80
2013,04,23,02,41,3.80
2013,04,23,02,42,3.80
2013,04,23,02,43,3.80
2013,04,23,02,44,3.80
2013,04,23,02,45,3.70
2013,04,23,02,46,3.70
2013,04,23,02,47,3.70
2013,04,23,02,48,3.60
2013,04,23,02,49,3.60
2013,04,23,02,50,3.50
2013,04,23,02,51,3.50
2013,04,23,02,52,3.50
2013,04,23,02,53,3.50
2013,04,23,02,54,3.50
2013,04,23,02,55,3.50
2013,04,23,02,56,3.50
2013,04,23,02,57,3.50
2013,04,23,02,58,3.50
2013,04,23,02,59,3.50
2013,04,23,03,00,3.40
2013,04,23,03,01,3.40
2013,04,23,03,02,3.40
2013,04,23,03,03,3.40
2013,04,23,03,04,3.40
2013,04,23,03,05,3.40
2013,04,23,03,06,3.40
2013,04,23,03,07,3.40
2013,04,23,03,08,3.40
2013,04,23,03,09,3.40
2013,04,23,03,10,3.40
2013,04,23,03,11,3.40
2013,04,23,03,12,3.40
2013,04,23,03,13,3.40
2013,04,23,03,14,3.40
2013,04,23,03,15,3.40
2013,04,23,03,16,3.40
2013,04,23,03,17,3.30
2013,04,23,03,18,3.30
2013,04,23,03,19,3.30
2013,04,23,03,20,3.30
2013,04,23,03,21,3.30
2013,04,23,03,22,3.30
2013,04,23,03,23,3.30
2013,04,23,03,24,3.30
2013,04,23,03,25,3.30
2013,04,23,03,26,3.20
2013,04,23,03,27,3.20
2013,04,23,03,28,3.20
2013,04,23,03,29,3.20
2013,04,23,03,30,3.20
2013,04,23,03,31,3.20
2013,04,23,03,32,3.20
2013,04,23,03,33,3.20
2013,04,23,03,34,3.20
2013,04,23,03,35,3.20
2013,04,23,03,36,3.20
2013,04,23,03,37,3.20
2013,04,23,03,38,3.20
2013,04,23,03,39,3.20
2013,04,23,03,40,3.20
2013,04,23,03,41,3.20
2013,04,23,03,42,3.20
2013,04,23,03,43,3.20
2013,04,23,03,44,3.20
2013,04,23,03,45,3.20
2013,04,23,03,46,3.20
2013,04,23,03,47,3.20
2013,04,23,03,48,3.10
2013,04,23,03,49,3.10
2013,04,23,03,50,3.10
2013,04,23,03,51,3.10
2013,04,23,03,52,3.10
2013,04,23,03,53,3.00
2013,04,23,03,54,2.90
2013,04,23,03,55,2.90
2013,04,23,03,56,2.90
2013,04,23,03,57,2.80
2013,04,23,03,58,2.80
2013,04,23,03,59,2.80
2013,04,23,04,00,2.80
2013,04,23,04,01,2.80
2013,04,23,04,02,2.80
2013,04,23,04,03,2.70
2013,04,23,04,04,2.70
2013,04,23,04,05,2.70
2013,04,23,04,06,2.70
2013,04,23,04,07,2.70
2013,04,23,04,08,2.70
2013,04,23,04,09,2.70
2013,04,23,04,10,2.80
2013,04,23,04,11,2.80
2013,04,23,04,12,2.80
2013,04,23,04,13,2.80
2013,04,23,04,14,2.80
2013,04,23,04,15,2.80
2013,04,23,04,16,2.80
2013,04,23,04,17,2.80
2013,04,23,04,18,2.80
2013,04,23,04,19,2.80
2013,04,23,04,20,2.80
2013,04,23,04,21,2.80
2013,04,23,04,22,2.80
2013,04,23,04,23,2.80
2013,04,23,04,24,2.80
2013,04,23,04,25,2.80
2013,04,23,04,26,2.80
2013,04,23,04,27,2.70
2013,04,23,04,28,2.70
2013,04,23,04,29,2.70
2013,04,23,04,30,2.70
2013,04,23,04,31,2.70
2013,04,23,04,32,2.70
2013,04,23,04,33,2.70
2013,04,23,04,34,2.70
2013,04,23,04,35,2.60
2013,04,23,04,36,2.60
2013,04,23,04,37,2.60
2013,04,23,04,38,2.60
2013,04,23,04,39,2.60
2013,04,23,04,40,2.60
2013,04,23,04,41,2.60
2013,04,23,04,42,2.60
2013,04,23,04,43,2.50
2013,04,23,04,44,2.50
2013,04,23,04,45,2.50
2013,04,23,04,46,2.50
2013,04,23,04,47,2.50
2013,04,23,04,48,2.50
2013,04,23,04,49,2.50
2013,04,23,04,50,2.50
2013,04,23,04,51,2.40
2013,04,23,04,52,2.40
2013,04,23,04,53,2.40
2013,04,23,04,54,2.40
2013,04,23,04,55,2.40
2013,04,23,04,56,2.40
2013,04,23,04,57,2.40
2013,04,23,04,58,2.40
2013,04,23,04,59,2.40
2013,04,23,05,00,2.40
2013,04,23,05,01,2.40
2013,04,23,05,02,2.30
2013,04,23,05,03,2.30
2013,04,23,05,04,2.30
2013,04,23,05,05,2.30
2013,04,23,05,06,2.30
2013,04,23,05,07,2.30
2013,04,23,05,08,2.20
2013,04,23,05,09,2.20
2013,04,23,05,10,2.20
2013,04,23,05,11,2.20
2013,04,23,05,12,2.20
2013,04,23,05,13,2.20
2013,04,23,05,14,2.20
2013,04,23,05,15,2.20
2013,04,23,05,16,2.20
2013,04,23,05,17,2.20
2013,04,23,05,18,2.20
2013,04,23,05,19,2.20
2013,04,23,05,20,2.20
2013,04,23,05,21,2.20
2013,04,23,05,22,2.20
2013,04,23,05,23,2.20
2013,04,23,05,24,2.20
2013,04,23,05,25,2.20
2013,04,23,05,26,2.20
2013,04,23,05,27,2.20
2013,04,23,05,28,2.20
2013,04,23,05,29,2.30
2013,04,23,05,30,2.30
2013,04,23,05,31,2.30
2013,04,23,05,32,2.30
2013,04,23,05,33,2.40
2013,04,23,05,34,2.40
2013,04,23,05,35,2.40
2013,04,23,05,36,2.40
2013,04,23,05,37,2.40
2013,04,23,05,38,2.40
2013,04,23,05,39,2.40
2013,04,23,05,40,2.40
2013,04,23,05,41,2.40
2013,04,23,05,42,2.40
2013,04,23,05,43,2.40
2013,04,23,05,44,2.50
2013,04,23,05,45,2.50
2013,04,23,05,46,2.50
2013,04,23,05,47,2.50
2013,04,23,05,48,2.50
2013,04,23,05,49,2.50
2013,04,23,05,50,2.60
2013,04,23,05,51,2.60
2013,04,23,05,52,2.60
2013,04,23,05,53,2.60
2013,04,23,05,54,2.60
2013,04,23,05,55,2.60
2013,04,23,05,56,2.60
2013,04,23,05,57,2.50
2013,04,23,05,58,2.50
2013,04,23,05,59,2.50
2013,04,23,06,00,2.50
2013,04,23,06,01,2.50
2013,04,23,06,02,2.40
2013,04,23,06,03,2.40
2013,04,23,06,04,2.40
2013,04,23,06,05,2.40
2013,04,23,06,06,2.30
2013,04,23,06,07,2.30
2013,04,23,06,08,2.30
2013,04,23,06,09,2.30
2013,04,23,06,10,2.30
2013,04,23,06,11,2.30
2013,04,23,06,12,2.30
2013,04,23,06,13,2.40
2013,04,23,06,14,2.40
2013,04,23,06,15,2.40
2013,04,23,06,16,2.40
2013,04,23,06,17,2.40
2013,04,23,06,18,2.40
2013,04,23,06,19,2.40
2013,04,23,06,20,2.40
2013,04,23,06,21,2.40
2013,04,23,06,22,2.40
2013,04,23,06,23,2.40
2013,04,23,06,24,2.40
2013,04,23,06,25,2.40
2013,04,23,06,26,2.50
2013,04,23,06,27,2.50
2013,04,23,06,28,2.50
2013,04,23,06,29,2.50
2013,04,23,06,30,2.60
2013,04,23,06,31,2.60
2013,04,23,06,32,2.60
2013,04,23,06,33,2.60
2013,04,23,06,34,2.70
2013,04,23,06,35,2.70
2013,04,23,06,36,2.70
2013,04,23,06,37,2.70
2013,04,23,06,38,2.70
2013,04,23,06,39,2.70
2013,04,23,06,40,2.70
2013,04,23,06,41,2.80
2013,04,23,06,42,2.80
2013,04,23,06,43,2.80
2013,04,23,06,44,2.80
2013,04,23,06,45,2.80
2013,04,23,06,46,2.80
2013,04,23,06,47,2.80
2013,04,23,06,48,2.80
2013,04,23,06,49,2.90
2013,04,23,06,50,2.90
2013,04,23,06,51,2.90
2013,04,23,06,52,2.90
2013,04,23,06,53,2.90
2013,04,23,06,54,2.90
2013,04,23,06,55,2.90
2013,04,23,06,56,3.00
2013,04,23,06,57,3.10
2013,04,23,06,58,3.10
2013,04,23,06,59,3.10
2013,04,23,07,00,3.10
2013,04,23,07,01,3.10
2013,04,23,07,02,3.20
2013,04,23,07,03,3.20
2013,04,23,07,04,3.20
2013,04,23,07,05,3.30
2013,04,23,07,06,3.30
2013,04,23,07,07,3.30
2013,04,23,07,08,3.30
2013,04,23,07,09,3.30
2013,04,23,07,10,3.40
2013,04,23,07,11,3.40
2013,04,23,07,12,3.40
2013,04,23,07,13,3.50
2013,04,23,07,14,3.50
2013,04,23,07,15,3.50
2013,04,23,07,16,3.60
2013,04,23,07,17,3.60
2013,04,23,07,18,3.60
2013,04,23,07,19,3.60
2013,04,23,07,20,3.60
2013,04,23,07,21,3.70
2013,04,23,07,22,3.70
2013,04,23,07,23,3.70
2013,04,23,07,24,3.70
2013,04,23,07,25,3.70
2013,04,23,07,26,3.70
2013,04,23,07,27,3.70
2013,04,23,07,28,3.70
2013,04,23,07,29,3.70
2013,04,23,07,30,3.70
2013,04,23,07,31,3.70
2013,04,23,07,32,3.70
2013,04,23,07,33,3.70
2013,04,23,07,34,3.70
2013,04,23,07,35,3.70
2013,04,23,07,36,3.70
2013,04,23,07,37,3.80
2013,04,23,07,38,3.80
2013,04,23,07,39,3.80
2013,04,23,07,40,3.90
2013,04,23,07,41,4.00
2013,04,23,07,42,4.00
2013,04,23,07,43,4.10
2013,04,23,07,44,4.20
2013,04,23,07,45,4.30
2013,04,23,07,46,4.40
2013,04,23,07,47,4.50
2013,04,23,07,48,4.50
2013,04,23,07,49,4.60
2013,04,23,07,50,4.70
2013,04,23,07,51,4.70
2013,04,23,07,52,4.80
2013,04,23,07,53,4.90
2013,04,23,07,54,4.90
2013,04,23,07,55,5.00
2013,04,23,07,56,5.10
2013,04,23,07,57,5.10
2013,04,23,07,58,5.10
2013,04,23,07,59,5.20
2013,04,23,08,00,5.20
2013,04,23,08,01,5.30
2013,04,23,08,02,5.40
2013,04,23,08,03,5.50
2013,04,23,08,04,5.60
2013,04,23,08,05,5.60
2013,04,23,08,06,5.70
2013,04,23,08,07,5.70
2013,04,23,08,08,5.70
2013,04,23,08,09,5.80
2013,04,23,08,10,5.80
2013,04,23,08,11,5.90
2013,04,23,08,12,5.90
2013,04,23,08,13,6.00
2013,04,23,08,14,6.00
2013,04,23,08,15,6.10
2013,04,23,08,16,6.10
2013,04,23,08,17,6.20
2013,04,23,08,18,6.20
2013,04,23,08,19,6.30
2013,04,23,08,20,6.40
2013,04,23,08,21,6.40
2013,04,23,08,22,6.60
2013,04,23,08,23,6.60
2013,04,23,08,24,6.70
2013,04,23,08,25,6.70
2013,04,23,08,26,6.80
2013,04,23,08,27,6.80
2013,04,23,08,28,6.90
2013,04,23,08,29,6.90
2013,04,23,08,30,7.00
2013,04,23,08,31,7.10
2013,04,23,08,32,7.10
2013,04,23,08,33,7.20
2013,04,23,08,34,7.30
2013,04,23,08,35,7.30
2013,04,23,08,36,7.30
2013,04,23,08,37,7.30
2013,04,23,08,38,7.30
2013,04,23,08,39,7.30
2013,04,23,08,40,7.40
2013,04,23,08,41,7.40
2013,04,23,08,42,7.40
2013,04,23,08,43,7.40
2013,04,23,08,44,7.50
2013,04,23,08,45,7.50
2013,04,23,08,46,7.50
2013,04,23,08,47,7.60
2013,04,23,08,48,7.60
2013,04,23,08,49,7.60
2013,04,23,08,50,7.70
2013,04,23,08,51,7.70
2013,04,23,08,52,7.70
2013,04,23,08,53,7.80
2013,04,23,08,54,7.80
2013,04,23,08,55,7.80
2013,04,23,08,56,7.80
2013,04,23,08,57,7.80
2013,04,23,08,58,7.90
2013,04,23,08,59,7.90
2013,04,23,09,00,7.90
2013,04,23,09,01,7.90
2013,04,23,09,02,7.90
2013,04,23,09,03,7.90
2013,04,23,09,04,8.00
2013,04,23,09,05,8.00
2013,04,23,09,06,8.00
2013,04,23,09,07,8.00
2013,04,23,09,08,8.10
2013,04,23,09,09,8.10
2013,04,23,09,10,8.10
2013,04,23,09,11,8.10
2013,04,23,09,12,8.10
2013,04,23,09,13,8.10
2013,04,23,09,14,8.20
2013,04,23,09,15,8.20
2013,04,23,09,16,8.20
2013,04,23,09,17,8.20
2013,04,23,09,18,8.20
2013,04,23,09,19,8.20
2013,04,23,09,20,8.20
2013,04,23,09,21,8.20
2013,04,23,09,22,8.20
2013,04,23,09,23,8.20
2013,04,23,09,24,8.30
2013,04,23,09,25,8.30
2013,04,23,09,26,8.30
2013,04,23,09,27,8.30
2013,04,23,09,28,8.40
2013,04,23,09,29,8.40
2013,04,23,09,30,8.40
2013,04,23,09,31,8.50
2013,04,23,09,32,8.50
2013,04,23,09,33,8.60
2013,04,23,09,34,8.60
2013,04,23,09,35,8.60
2013,04,23,09,36,8.70
2013,04,23,09,37,8.70
2013,04,23,09,38,8.70
2013,04,23,09,39,8.80
2013,04,23,09,40,8.80
2013,04,23,09,41,8.90
2013,04,23,09,42,9.00
2013,04,23,09,43,9.10
2013,04,23,09,44,9.20
2013,04,23,09,45,9.20
2013,04,23,09,46,9.30
2013,04,23,09,47,9.30
2013,04,23,09,48,9.30
2013,04,23,09,49,9.40
2013,04,23,09,50,9.40
2013,04,23,09,51,9.50
2013,04,23,09,52,9.50
2013,04,23,09,53,9.50
2013,04,23,09,54,9.50
2013,04,23,09,55,9.50
2013,04,23,09,56,9.50
2013,04,23,09,57,9.50
2013,04,23,09,58,9.50
2013,04,23,09,59,9.50
2013,04,23,10,00,9.50
2013,04,23,10,01,9.60
2013,04,23,10,02,9.70
2013,04,23,10,03,9.70
2013,04,23,10,04,9.80
2013,04,23,10,05,9.80
2013,04,23,10,06,9.80
2013,04,23,10,07,9.80
2013,04,23,10,08,9.80
2013,04,23,10,09,9.80
2013,04,23,10,10,9.90
2013,04,23,10,11,9.90
2013,04,23,10,12,9.90
2013,04,23,10,13,10.00
2013,04,23,10,14,10.10
2013,04,23,10,15,10.10
2013,04,23,10,16,10.10
2013,04,23,10,17,10.20
2013,04,23,10,18,10.30
2013,04,23,10,19,10.30
2013,04,23,10,20,10.40
2013,04,23,10,21,10.40
2013,04,23,10,22,10.40
2013,04,23,10,23,10.40
2013,04,23,10,24,10.40
2013,04,23,10,25,10.40
2013,04,23,10,26,10.40
2013,04,23,10,27,10.40
2013,04,23,10,28,10.40
2013,04,23,10,29,10.40
2013,04,23,10,30,10.40
2013,04,23,10,31,10.40
2013,04,23,10,32,10.50
2013,04,23,10,33,10.60
2013,04,23,10,34,10.60
2013,04,23,10,35,10.60
2013,04,23,10,36,10.60
2013,04,23,10,37,10.70
2013,04,23,10,38,10.70
2013,04,23,10,39,10.60
2013,04,23,10,40,10.70
2013,04,23,10,41,10.70
2013,04,23,10,42,10.70
2013,04,23,10,43,10.80
2013,04,23,10,44,10.70
2013,04,23,10,45,10.70
2013,04,23,10,46,10.60
2013,04,23,10,47,10.60
2013,04,23,10,48,10.50
2013,04,23,10,49,10.40
2013,04,23,10,50,10.40
2013,04,23,10,51,10.40
2013,04,23,10,52,10.40
2013,04,23,10,53,10.40
2013,04,23,10,54,10.40
2013,04,23,10,55,10.50
2013,04,23,10,56,10.60
2013,04,23,10,57,10.60
2013,04,23,10,58,10.60
2013,04,23,10,59,10.50
2013,04,23,11,00,10.40
2013,04,23,11,01,10.40
2013,04,23,11,02,10.40
2013,04,23,11,03,10.40
2013,04,23,11,04,10.40
2013,04,23,11,05,10.40
2013,04,23,11,06,10.50
2013,04,23,11,07,10.60
2013,04,23,11,08,10.60
2013,04,23,11,09,10.70
2013,04,23,11,10,10.80
2013,04,23,11,11,10.80
2013,04,23,11,12,10.70
2013,04,23,11,13,10.70
2013,04,23,11,14,10.60
2013,04,23,11,15,10.60
2013,04,23,11,16,10.60
2013,04,23,11,17,10.70
2013,04,23,11,18,10.70
2013,04,23,11,19,10.70
2013,04,23,11,20,10.70
2013,04,23,11,21,10.70
2013,04,23,11,22,10.80
2013,04,23,11,23,10.90
2013,04,23,11,24,11.00
2013,04,23,11,25,11.10
2013,04,23,11,26,11.10
2013,04,23,11,27,11.20
2013,04,23,11,28,11.30
2013,04,23,11,29,11.50
2013,04,23,11,30,11.60
2013,04,23,11,31,11.60
2013,04,23,11,32,11.50
2013,04,23,11,33,11.40
2013,04,23,11,34,11.30
2013,04,23,11,35,11.30
2013,04,23,11,36,11.30
2013,04,23,11,37,11.20
2013,04,23,11,38,11.20
2013,04,23,11,39,11.20
2013,04,23,11,40,11.30
2013,04,23,11,41,11.40
2013,04,23,11,42,11.40
2013,04,23,11,43,11.40
2013,04,23,11,44,11.30
2013,04,23,11,45,11.20
2013,04,23,11,46,11.30
2013,04,23,11,47,11.40
2013,04,23,11,48,11.50
2013,04,23,11,49,11.60
2013,04,23,11,50,11.70
2013,04,23,11,51,11.90
2013,04,23,11,52,12.00
2013,04,23,11,53,12.10
2013,04,23,11,54,12.10
2013,04,23,11,55,12.00
2013,04,23,11,56,12.00
2013,04,23,11,57,12.00
2013,04,23,11,58,12.10
2013,04,23,11,59,12.20
2013,04,23,12,00,12.40
2013,04,23,12,01,12.50
2013,04,23,12,02,12.70
2013,04,23,12,03,12.80
2013,04,23,12,04,12.90
2013,04,23,12,05,13.10
2013,04,23,12,06,13.10
2013,04,23,12,07,13.10
2013,04,23,12,08,13.00
2013,04,23,12,09,12.90
2013,04,23,12,10,12.80
2013,04,23,12,11,12.80
2013,04,23,12,12,12.70
2013,04,23,12,13,12.60
2013,04,23,12,14,12.50
2013,04,23,12,15,12.40
2013,04,23,12,16,12.30
2013,04,23,12,17,12.20
2013,04,23,12,18,12.10
2013,04,23,12,19,12.20
2013,04,23,12,20,12.30
2013,04,23,12,21,12.30
2013,04,23,12,22,12.40
2013,04,23,12,23,12.50
2013,04,23,12,24,12.60
2013,04,23,12,25,12.60
2013,04,23,12,26,12.60
2013,04,23,12,27,12.60
2013,04,23,12,28,12.70
2013,04,23,12,29,12.60
2013,04,23,12,30,12.70
2013,04,23,12,31,12.80
2013,04,23,12,32,12.80
2013,04,23,12,33,12.70
2013,04,23,12,34,12.60
2013,04,23,12,35,12.60
2013,04,23,12,36,12.60
2013,04,23,12,37,12.50
2013,04,23,12,38,12.40
2013,04,23,12,39,12.50
2013,04,23,12,40,12.50
2013,04,23,12,41,12.40
2013,04,23,12,42,12.50
2013,04,23,12,43,12.60
2013,04,23,12,44,12.60
2013,04,23,12,45,12.50
2013,04,23,12,46,12.50
2013,04,23,12,47,12.50
2013,04,23,12,48,12.40
2013,04,23,12,49,12.40
2013,04,23,12,50,12.50
2013,04,23,12,51,12.60
2013,04,23,12,52,12.70
2013,04,23,12,53,12.60
2013,04,23,12,54,12.70
2013,04,23,12,55,12.70
2013,04,23,12,56,12.60
2013,04,23,12,57,12.50
2013,04,23,12,58,12.50
2013,04,23,12,59,12.50
2013,04,23,13,00,12.30
2013,04,23,13,01,12.20
2013,04,23,13,02,12.10
2013,04,23,13,03,12.00
2013,04,23,13,04,11.90
2013,04,23,13,05,11.80
2013,04,23,13,06,11.80
2013,04,23,13,07,11.80
2013,04,23,13,08,11.90
2013,04,23,13,09,11.90
2013,04,23,13,10,11.90
2013,04,23,13,11,12.00
2013,04,23,13,12,12.10
2013,04,23,13,13,12.10
2013,04,23,13,14,12.00
2013,04,23,13,15,11.90
2013,04,23,13,16,11.90
2013,04,23,13,17,11.90
2013,04,23,13,18,12.00
2013,04,23,13,19,12.10
2013,04,23,13,20,12.20
2013,04,23,13,21,12.20
2013,04,23,13,22,12.30
2013,04,23,13,23,12.30
2013,04,23,13,24,12.30
2013,04,23,13,25,12.30
2013,04,23,13,26,12.20
2013,04,23,13,27,12.30
2013,04,23,13,28,12.30
2013,04,23,13,29,12.40
2013,04,23,13,30,12.50
2013,04,23,13,31,12.50
2013,04,23,13,32,12.50
2013,04,23,13,33,12.50
2013,04,23,13,34,12.50
2013,04,23,13,35,12.50
2013,04,23,13,36,12.60
2013,04,23,13,37,12.70
2013,04,23,13,38,12.70
2013,04,23,13,39,12.70
2013,04,23,13,40,12.90
2013,04,23,13,41,13.10
2013,04,23,13,42,13.20
2013,04,23,13,43,13.40
2013,04,23,13,44,13.50
2013,04,23,13,45,13.70
2013,04,23,13,46,13.70
2013,04,23,13,47,13.70
2013,04,23,13,48,13.70
2013,04,23,13,49,13.70
2013,04,23,13,50,13.60
2013,04,23,13,51,13.40
2013,04,23,13,52,13.20
2013,04,23,13,53,13.10
2013,04,23,13,54,13.00
2013,04,23,13,55,13.10
2013,04,23,13,56,13.10
2013,04,23,13,57,13.20
2013,04,23,13,58,13.40
2013,04,23,13,59,13.50
2013,04,23,14,00,13.60
2013,04,23,14,01,13.70
2013,04,23,14,02,13.80
2013,04,23,14,03,14.00
2013,04,23,14,04,14.00
2013,04,23,14,05,14.10
2013,04,23,14,06,14.20
2013,04,23,14,07,14.20
2013,04,23,14,08,14.20
2013,04,23,14,09,14.20
2013,04,23,14,10,14.20
2013,04,23,14,11,14.30
2013,04,23,14,12,14.50
2013,04,23,14,13,14.70
2013,04,23,14,14,14.70
2013,04,23,14,15,14.80
2013,04,23,14,16,14.90
2013,04,23,14,17,14.80
2013,04,23,14,18,14.60
2013,04,23,14,19,14.50
2013,04,23,14,20,14.40
2013,04,23,14,21,14.50
2013,04,23,14,22,14.50
2013,04,23,14,23,14.50
2013,04,23,14,24,14.50
2013,04,23,14,25,14.60
2013,04,23,14,26,14.70
2013,04,23,14,27,14.70
2013,04,23,14,28,14.50
2013,04,23,14,29,14.50
2013,04,23,14,30,14.50
2013,04,23,14,31,14.50
2013,04,23,14,32,14.60
2013,04,23,14,33,14.60
2013,04,23,14,34,14.60
2013,04,23,14,35,14.70
2013,04,23,14,36,14.80
2013,04,23,14,37,14.90
2013,04,23,14,38,14.90
2013,04,23,14,39,14.80
2013,04,23,14,40,14.70
2013,04,23,14,41,14.60
2013,04,23,14,42,14.60
2013,04,23,14,43,14.70
2013,04,23,14,44,14.80
2013,04,23,14,45,14.80
2013,04,23,14,46,14.90
2013,04,23,14,47,15.00
2013,04,23,14,48,15.00
2013,04,23,14,49,15.00
2013,04,23,14,50,14.90
2013,04,23,14,51,14.90
2013,04,23,14,52,14.90
2013,04,23,14,53,14.80
2013,04,23,14,54,14.90
2013,04,23,14,55,14.90
2013,04,23,14,56,14.90
2013,04,23,14,57,14.90
2013,04,23,14,58,14.90
2013,04,23,14,59,14.90
2013,04,23,15,00,14.80
2013,04,23,15,01,14.90
2013,04,23,15,02,15.00
2013,04,23,15,03,15.00
2013,04,23,15,04,15.00
2013,04,23,15,05,14.90
2013,04,23,15,06,15.00
2013,04,23,15,07,15.00
2013,04,23,15,08,14.90
2013,04,23,15,09,14.90
2013,04,23,15,10,15.00
2013,04,23,15,11,15.00
2013,04,23,15,12,14.90
2013,04,23,15,13,14.90
2013,04,23,15,14,14.90
2013,04,23,15,15,14.80
2013,04,23,15,16,14.80
2013,04,23,15,17,14.80
2013,04,23,15,18,14.80
2013,04,23,15,19,14.70
2013,04,23,15,20,14.60
2013,04,23,15,21,14.60
2013,04,23,15,22,14.60
2013,04,23,15,23,14.60
2013,04,23,15,24,14.60
2013,04,23,15,25,14.70
2013,04,23,15,26,14.70
2013,04,23,15,27,14.70
2013,04,23,15,28,14.70
2013,04,23,15,29,14.80
2013,04,23,15,30,14.70
2013,04,23,15,31,14.70
2013,04,23,15,32,14.70
2013,04,23,15,33,14.70
2013,04,23,15,34,14.60
2013,04,23,15,35,14.60
2013,04,23,15,36,14.60
2013,04,23,15,37,14.70
2013,04,23,15,38,14.70
2013,04,23,15,39,14.60
2013,04,23,15,40,14.60
2013,04,23,15,41,14.60
2013,04,23,15,42,14.50
2013,04,23,15,43,14.50
2013,04,23,15,44,14.50
2013,04,23,15,45,14.40
2013,04,23,15,46,14.40
2013,04,23,15,47,14.30
2013,04,23,15,48,14.30
2013,04,23,15,49,14.30
2013,04,23,15,50,14.30
2013,04,23,15,51,14.30
2013,04,23,15,52,14.20
2013,04,23,15,53,14.30
2013,04,23,15,54,14.30
2013,04,23,15,55,14.30
2013,04,23,15,56,14.30
2013,04,23,15,57,14.20
2013,04,23,15,58,14.20
2013,04,23,15,59,14.20
2013,04,23,16,00,14.20
2013,04,23,16,01,14.20
2013,04,23,16,02,14.20
2013,04,23,16,03,14.20
2013,04,23,16,04,14.20
2013,04,23,16,05,14.20
2013,04,23,16,06,14.20
2013,04,23,16,07,14.20
2013,04,23,16,08,14.20
2013,04,23,16,09,14.20
2013,04,23,16,10,14.30
2013,04,23,16,11,14.30
2013,04,23,16,12,14.40
2013,04,23,16,13,14.40
2013,04,23,16,14,14.40
2013,04,23,16,15,14.40
2013,04,23,16,16,14.50
2013,04,23,16,17,14.50
2013,04,23,16,18,14.50
2013,04,23,16,19,14.50
2013,04,23,16,20,14.50
2013,04,23,16,21,14.50
2013,04,23,16,22,14.40
2013,04,23,16,23,14.40
2013,04,23,16,24,14.40
2013,04,23,16,25,14.40
2013,04,23,16,26,14.40
2013,04,23,16,27,14.50
2013,04,23,16,28,14.60
2013,04,23,16,29,14.60
2013,04,23,16,30,14.50
2013,04,23,16,31,14.40
2013,04,23,16,32,14.40
2013,04,23,16,33,14.50
2013,04,23,16,34,14.50
2013,04,23,16,35,14.60
2013,04,23,16,36,14.60
2013,04,23,16,37,14.60
2013,04,23,16,38,14.60
2013,04,23,16,39,14.60
2013,04,23,16,40,14.60
2013,04,23,16,41,14.60
2013,04,23,16,42,14.50
2013,04,23,16,43,14.50
2013,04,23,16,44,14.50
2013,04,23,16,45,14.60
2013,04,23,16,46,14.50
2013,04,23,16,47,14.50
2013,04,23,16,48,14.50
2013,04,23,16,49,14.50
2013,04,23,16,50,14.50
2013,04,23,16,51,14.50
2013,04,23,16,52,14.50
2013,04,23,16,53,14.50
2013,04,23,16,54,14.50
2013,04,23,16,55,14.50
2013,04,23,16,56,14.50
2013,04,23,16,57,14.50
2013,04,23,16,58,14.50
2013,04,23,16,59,14.40
2013,04,23,17,00,14.40
2013,04,23,17,01,14.40
2013,04,23,17,02,14.40
2013,04,23,17,03,14.40
2013,04,23,17,04,14.50
2013,04,23,17,05,14.50
2013,04,23,17,06,14.50
2013,04,23,17,07,14.50
2013,04,23,17,08,14.40
2013,04,23,17,09,14.40
2013,04,23,17,10,14.40
2013,04,23,17,11,14.50
2013,04,23,17,12,14.50
2013,04,23,17,13,14.50
2013,04,23,17,14,14.60
2013,04,23,17,15,14.60
2013,04,23,17,16,14.50
2013,04,23,17,17,14.40
2013,04,23,17,18,14.40
2013,04,23,17,19,14.40
2013,04,23,17,20,14.40
2013,04,23,17,21,14.30
2013,04,23,17,22,14.20
2013,04,23,17,23,14.20
2013,04,23,17,24,14.20
2013,04,23,17,25,14.20
2013,04,23,17,26,14.30
2013,04,23,17,27,14.40
2013,04,23,17,28,14.40
2013,04,23,17,29,14.40
2013,04,23,17,30,14.40
2013,04,23,17,31,14.40
2013,04,23,17,32,14.40
2013,04,23,17,33,14.50
2013,04,23,17,34,14.50
2013,04,23,17,35,14.50
2013,04,23,17,36,14.50
2013,04,23,17,37,14.40
2013,04,23,17,38,14.40
2013,04,23,17,39,14.50
2013,04,23,17,40,14.50
2013,04,23,17,41,14.60
2013,04,23,17,42,14.60
2013,04,23,17,43,14.60
2013,04,23,17,44,14.50
2013,04,23,17,45,14.40
2013,04,23,17,46,14.40